Location: Newark
(49.4794°N, 21.2167°E)
Time: 09:42:50
(UTC+00:00)

N. Korean satellite - Visible Passes

Search period start: 20 October 2019 00:00
Search period end: 30 October 2019 00:00
Orbit: 455 x 508 km, 97.2° (Epoch: 19 October)

Date Brightness Start Highest point End Pass type
(mag) Time Alt. Az. Time Alt. Az. Time Alt. Az.
21 Oct 7.6 04:22:03 10° NNE 04:25:35 52° E 04:29:10 10° S visible
21 Oct 9.9 16:36:10 10° SW 16:38:31 17° W 16:40:53 10° NW visible
22 Oct 9.1 03:57:02 10° NE 04:00:11 27° E 04:03:21 10° SSE visible
22 Oct 8.6 16:09:54 10° SSW 16:13:02 32° W 16:16:12 10° NNW visible
23 Oct 10.1 03:32:30 10° NE 03:34:41 15° E 03:36:53 10° SE visible
24 Oct 10.4 16:55:04 10° WSW 16:56:08 11° W 16:57:14 10° WNW visible
25 Oct 8.1 04:14:14 10° NNE 04:17:44 43° E 04:21:16 10° S visible
25 Oct 9.5 16:27:55 10° SW 16:30:34 21° W 16:33:18 10° NW visible
26 Oct 9.4 03:49:19 10° NE 03:52:18 23° E 03:55:17 10° SSE visible
26 Oct 8.1 16:01:50 10° S 16:05:07 40° W 16:08:27 10° NNW visible
27 Oct 10.3 03:25:03 10° ENE 03:26:46 13° E 03:28:28 10° ESE visible
28 Oct 7.0 04:31:33 10° NNE 04:35:13 70° ESE 04:38:55 10° S visible
28 Oct 10.1 16:46:19 10° WSW 16:48:09 14° W 16:50:01 10° WNW visible
29 Oct 8.5 04:06:25 10° NNE 04:09:50 35° E 04:13:16 10° SSE visible
29 Oct 9.1 16:19:40 10° SSW 16:22:37 25° W 16:25:37 10° NW visible
